Location: Kumla
(59.1265°N, 15.1401°E)
Time: 21:05:50
(UTC+01:00)

Transit 2A - Pass Details

Date: 08 December 2023
Orbit: 600 x 953 km, 66.7° (Epoch: 24 February)

Event Time Altitude Azimuth Distance (km) Brightness Sun altitude
Rises 21:08:57 0° 306° (NW) 2,913 9.8 -43.7°
Enters shadow 21:10:15 - 309° (NW) 2,390 9.3 -43.9°
Reaches altitude 10° 21:11:18 10° 312° (NW) 1,979 - -44.0°
Maximum altitude 21:15:37 54° 30° (NNE) 739 - -44.4°
Drops below altitude 10° 21:19:53 10° 108° (ESE) 1,954 - -44.9°
Sets 21:22:12 0° 113° (ESE) 2,872 - -45.1°
